Date,TemperatureHighF,TemperatureAvgF,TemperatureLowF,DewpointHighF,DewpointAvgF,DewpointLowF,HumidityHigh,HumidityAvg,HumidityLow,PressureMaxIn,PressureMinIn,WindSpeedMaxMPH,WindSpeedAvgMPH,GustSpeedMaxMPH,PrecipitationSumIn
2013-2-1,26,6,-7,20,0,-11,89,74,61,0.00,40.00,14,7,21,0.00
2013-2-2,27,22,18,23,17,9,95,82,66,0.00,40.00,14,1,24,0.03
2013-2-3,32,26,20,31,19,14,95,77,53,0.00,40.00,20,9,34,0.00
2013-2-4,30,24,17,26,22,15,95,91,78,0.00,40.00,17,6,24,0.00
2013-2-5,42,31,20,37,29,18,95,92,77,0.00,40.00,15,6,23,0.00
2013-2-6,47,35,21,39,32,20,95,86,71,0.00,40.00,14,5,19,0.00
2013-2-7,42,36,30,39,34,29,95,95,85,0.00,40.00,15,7,24,1.69
2013-2-8,31,29,27,29,28,26,95,95,95,0.00,40.00,15,7,21,0.00
2013-2-9,35,32,28,34,30,27,95,95,93,0.00,40.00,16,10,24,0.14
2013-2-10,57,41,34,53,37,28,95,87,55,0.00,40.00,29,15,47,0.41
2013-2-11,36,33,29,29,26,24,88,76,68,0.00,40.00,29,18,40,0.10
2013-2-12,45,35,26,32,28,25,95,76,45,0.00,40.00,12,7,17,0.00
2013-2-13,51,39,27,32,29,26,95,71,41,0.00,40.00,12,7,18,0.00
2013-2-14,44,38,28,33,30,22,90,74,58,0.00,40.00,18,11,30,0.06
2013-2-15,29,24,18,22,14,6,86,66,39,0.00,40.00,16,8,26,0.00
2013-2-16,34,23,13,21,15,11,94,74,43,0.00,40.00,10,6,17,0.00
2013-2-17,44,32,20,26,22,18,95,70,45,0.00,40.00,16,9,25,0.00
2013-2-18,46,35,19,39,29,11,95,78,65,0.00,40.00,27,11,39,0.52
2013-2-19,25,18,12,12,7,4,78,62,42,0.00,40.00,24,16,37,0.00
2013-2-20,24,14,2,14,4,-3,81,64,45,0.00,40.00,13,5,19,0.00
2013-2-21,27,22,18,26,19,13,95,85,72,0.00,40.00,23,13,29,0.13
2013-2-22,30,26,23,27,23,19,95,88,75,0.00,40.00,16,9,22,0.15
2013-2-23,34,26,19,22,20,18,95,78,57,0.00,40.00,12,7,16,0.00
2013-2-24,42,28,14,33,24,13,95,85,60,0.00,40.00,8,3,11,0.00
2013-2-25,40,33,26,35,31,25,95,91,75,0.00,40.00,14,5,19,0.00
2013-2-26,35,33,31,33,31,29,95,92,87,0.00,40.00,14,12,22,0.32
2013-2-27,30,29,28,29,28,27,95,95,95,0.00,40.00,15,11,24,0.33
2013-2-28,32,28,22,30,26,21,95,95,95,0.00,40.00,13,8,22,0.19